Saint Bonnet de Bellac- Haute Vienne - France
Donnes mto: mardi, 22/05/2012
Date Horaire Temp. E. Hum. E. P.atmo. Pluie Vent Direction Direction Ensoleilleme Solaire P. de rose Temp au vent Rafales
22/05/2012 00:00 10,8 C 94 % 1009,2 hPa 0,1 mm 6,5 km/h (2 Bft) N-NO 337 0 min 0 W/m 9,9 C 10,8 C 13,0 km/h (3 Bft)
22/05/2012 00:10 10,7 C 94 % 1009,3 hPa 0,1 mm 7,9 km/h (2 Bft) O 270 0 min 0 W/m 9,8 C 10,7 C 15,8 km/h (3 Bft)
22/05/2012 00:20 10,6 C 94 % 1009,5 hPa 0,1 mm 5,4 km/h (2 Bft) N-NE 22 0 min 0 W/m 9,7 C 10,6 C 8,6 km/h (2 Bft)
22/05/2012 00:30 10,6 C 94 % 1009,5 hPa 0,1 mm 10,8 km/h (2 Bft) NO 315 0 min 0 W/m 9,7 C 10,6 C 17,6 km/h (3 Bft)
22/05/2012 00:40 10,6 C 94 % 1009,6 hPa 0,1 mm 9,0 km/h (2 Bft) N 360 0 min 0 W/m 9,7 C 10,6 C 14,4 km/h (3 Bft)
22/05/2012 00:50 10,6 C 94 % 1009,7 hPa 0,0 mm 8,3 km/h (2 Bft) N-NO 337 0 min 0 W/m 9,7 C 10,6 C 12,6 km/h (3 Bft)
22/05/2012 01:00 10,6 C 94 % 1009,8 hPa 0,1 mm 7,6 km/h (2 Bft) O 270 0 min 0 W/m 9,7 C 10,6 C 9,4 km/h (2 Bft)
22/05/2012 01:10 10,6 C 94 % 1009,7 hPa 0,0 mm 8,6 km/h (2 Bft) O-NO 292 0 min 0 W/m 9,7 C 10,6 C 18,4 km/h (3 Bft)
22/05/2012 01:20 10,6 C 94 % 1009,9 hPa 0,1 mm 4,3 km/h (1 Bft) NO 315 0 min 0 W/m 9,7 C 10,6 C 4,3 km/h (1 Bft)
22/05/2012 01:30 10,6 C 94 % 1009,9 hPa 0,0 mm 6,5 km/h (2 Bft) N 360 0 min 0 W/m 9,7 C 10,6 C 15,5 km/h (3 Bft)
22/05/2012 01:40 10,6 C 94 % 1010,0 hPa 0,1 mm 9,7 km/h (2 Bft) SO 225 0 min 0 W/m 9,7 C 10,6 C 9,7 km/h (2 Bft)
22/05/2012 01:50 10,5 C 94 % 1010,1 hPa 0,0 mm 5,4 km/h (2 Bft) NO 315 0 min 0 W/m 9,6 C 10,5 C 13,7 km/h (3 Bft)
22/05/2012 02:00 10,4 C 94 % 1010,1 hPa 0,1 mm 5,8 km/h (2 Bft) O-NO 292 0 min 0 W/m 9,5 C 10,4 C 14,0 km/h (3 Bft)
22/05/2012 02:10 10,4 C 94 % 1010,0 hPa 0,0 mm 4,7 km/h (1 Bft) NO 315 0 min 0 W/m 9,5 C 10,4 C 6,1 km/h (2 Bft)
22/05/2012 02:20 10,3 C 94 % 1010,2 hPa 0,0 mm 6,1 km/h (2 Bft) NO 315 0 min 0 W/m 9,4 C 10,3 C 8,6 km/h (2 Bft)
22/05/2012 02:30 10,3 C 94 % 1010,4 hPa 0,0 mm 6,8 km/h (2 Bft) N-NO 337 0 min 0 W/m 9,4 C 10,3 C 6,8 km/h (2 Bft)
22/05/2012 02:40 10,3 C 94 % 1010,5 hPa 0,0 mm 5,8 km/h (2 Bft) NO 315 0 min 0 W/m 9,4 C 10,3 C 10,4 km/h (2 Bft)
22/05/2012 02:50 10,2 C 94 % 1010,5 hPa 0,1 mm 5,8 km/h (2 Bft) NO 315 0 min 0 W/m 9,3 C 10,2 C 10,8 km/h (2 Bft)
22/05/2012 03:02 10,2 C 94 % 1010,6 hPa 0,0 mm 10,4 km/h (2 Bft) N-NO 337 0 min 0 W/m 9,3 C 10,2 C 16,6 km/h (3 Bft)
22/05/2012 03:10 10,1 C 94 % 1010,8 hPa 0,0 mm 9,7 km/h (2 Bft) N-NO 337 0 min 0 W/m 9,2 C 10,1 C 18,4 km/h (3 Bft)
22/05/2012 03:20 10,1 C 94 % 1010,9 hPa 0,1 mm 3,2 km/h (1 Bft) NO 315 0 min 0 W/m 9,2 C 10,1 C 4,0 km/h (1 Bft)
22/05/2012 03:30 10,0 C 94 % 1010,9 hPa 0,0 mm 5,0 km/h (1 Bft) NO 315 0 min 0 W/m 9,1 C 9,8 C 5,0 km/h (1 Bft)
22/05/2012 03:40 9,9 C 94 % 1011,0 hPa 0,0 mm 4,3 km/h (1 Bft) O 270 0 min 0 W/m 9,0 C 9,9 C 10,1 km/h (2 Bft)
22/05/2012 03:50 9,9 C 94 % 1011,0 hPa 0,0 mm 7,9 km/h (2 Bft) NO 315 0 min 0 W/m 9,0 C 8,9 C 10,1 km/h (2 Bft)
22/05/2012 04:00 9,8 C 94 % 1011,1 hPa 0,0 mm 4,3 km/h (1 Bft) NO 315 0 min 0 W/m 8,9 C 9,8 C 8,6 km/h (2 Bft)
22/05/2012 04:10 9,8 C 94 % 1011,2 hPa 0,0 mm 4,7 km/h (1 Bft) NO 315 0 min 0 W/m 8,9 C 9,6 C 4,7 km/h (1 Bft)
22/05/2012 04:20 9,8 C 94 % 1011,2 hPa 0,0 mm 4,3 km/h (1 Bft) N-NO 337 0 min 0 W/m 8,9 C 9,8 C 7,9 km/h (2 Bft)
22/05/2012 04:30 9,8 C 94 % 1011,2 hPa 0,0 mm 0,4 km/h (0 Bft) NE 45 0 min 0 W/m 8,9 C 9,8 C 4,3 km/h (1 Bft)
22/05/2012 04:40 9,7 C 94 % 1011,2 hPa 0,0 mm 1,8 km/h (1 Bft) O-NO 292 0 min 0 W/m 8,8 C 9,7 C 6,1 km/h (2 Bft)
22/05/2012 04:50 9,7 C 94 % 1011,2 hPa 0,0 mm 2,9 km/h (1 Bft) NO 315 0 min 0 W/m 8,8 C 9,7 C 4,3 km/h (1 Bft)
22/05/2012 05:00 9,6 C 94 % 1011,3 hPa 0,0 mm 0,0 km/h (0 Bft) N-NO 337 0 min 0 W/m 8,7 C 9,6 C 0,0 km/h (0 Bft)
22/05/2012 05:10 9,6 C 94 % 1011,2 hPa 0,0 mm 0,7 km/h (0 Bft) O 270 0 min 0 W/m 8,7 C 9,6 C 2,9 km/h (1 Bft)
22/05/2012 05:20 9,5 C 94 % 1011,2 hPa 0,0 mm 2,2 km/h (1 Bft) O-NO 292 0 min 0 W/m 8,6 C 9,5 C 9,0 km/h (2 Bft)
22/05/2012 05:30 9,5 C 94 % 1011,2 hPa 0,0 mm 0,4 km/h (0 Bft) O-NO 292 0 min 0 W/m 8,6 C 9,5 C 3,2 km/h (1 Bft)
22/05/2012 05:40 9,5 C 94 % 1011,3 hPa 0,0 mm 1,4 km/h (1 Bft) O 270 0 min 0 W/m 8,6 C 9,5 C 7,2 km/h (2 Bft)
22/05/2012 05:50 9,5 C 94 % 1011,2 hPa 0,0 mm 2,2 km/h (1 Bft) SO 225 0 min 0 W/m 8,6 C 9,5 C 4,0 km/h (1 Bft)
22/05/2012 06:00 9,4 C 94 % 1011,4 hPa 0,0 mm 1,4 km/h (1 Bft) O-SO 247 0 min 0 W/m 8,5 C 9,4 C 4,3 km/h (1 Bft)
22/05/2012 06:10 9,4 C 94 % 1011,3 hPa 0,0 mm 0,0 km/h (0 Bft) O-NO 292 0 min 0 W/m 8,5 C 9,4 C 0,0 km/h (0 Bft)
22/05/2012 06:20 9,4 C 94 % 1011,5 hPa 0,0 mm 1,1 km/h (1 Bft) O-NO 292 0 min 0 W/m 8,5 C 9,4 C 3,2 km/h (1 Bft)
22/05/2012 06:30 9,4 C 94 % 1011,5 hPa 0,0 mm 1,4 km/h (1 Bft) O-NO 292 0 min 0 W/m 8,5 C 9,4 C 2,9 km/h (1 Bft)
22/05/2012 06:40 9,4 C 94 % 1011,7 hPa 0,0 mm 4,3 km/h (1 Bft) O-NO 292 0 min 0 W/m 8,5 C 9,4 C 12,2 km/h (2 Bft)
22/05/2012 06:50 9,4 C 94 % 1011,8 hPa 0,0 mm 0,0 km/h (0 Bft) N-NO 337 0 min 0 W/m 8,5 C 9,4 C 0,0 km/h (0 Bft)
22/05/2012 07:00 9,4 C 94 % 1011,9 hPa 0,0 mm 0,0 km/h (0 Bft) O-SO 247 0 min 0 W/m 8,5 C 9,4 C 1,4 km/h (1 Bft)
22/05/2012 07:10 9,4 C 94 % 1011,9 hPa 0,0 mm 2,5 km/h (1 Bft) O 270 0 min 0 W/m 8,5 C 9,4 C 9,7 km/h (2 Bft)
22/05/2012 07:20 9,4 C 94 % 1011,9 hPa 0,0 mm 3,6 km/h (1 Bft) O 270 0 min 0 W/m 8,5 C 9,4 C 6,5 km/h (2 Bft)
22/05/2012 07:30 9,5 C 94 % 1012,1 hPa 0,0 mm 3,2 km/h (1 Bft) O 270 0 min 0 W/m 8,6 C 9,5 C 4,3 km/h (1 Bft)
22/05/2012 07:40 9,5 C 94 % 1012,2 hPa 0,0 mm 2,9 km/h (1 Bft) O 270 0 min 0 W/m 8,6 C 9,5 C 4,0 km/h (1 Bft)
22/05/2012 07:50 9,5 C 94 % 1012,2 hPa 0,0 mm 0,4 km/h (0 Bft) O-NO 292 0 min 0 W/m 8,6 C 9,5 C 0,4 km/h (0 Bft)
22/05/2012 08:00 9,5 C 94 % 1012,2 hPa 0,0 mm 0,4 km/h (0 Bft) O-SO 247 0 min 0 W/m 8,6 C 9,5 C 0,4 km/h (0 Bft)
22/05/2012 08:10 9,5 C 94 % 1012,1 hPa 0,0 mm 0,7 km/h (0 Bft) O-NO 292 0 min 0 W/m 8,6 C 9,5 C 4,3 km/h (1 Bft)
22/05/2012 08:20 9,5 C 94 % 1012,3 hPa 0,0 mm 2,5 km/h (1 Bft) O-NO 292 0 min 0 W/m 8,6 C 9,5 C 4,3 km/h (1 Bft)
22/05/2012 08:30 9,5 C 94 % 1012,3 hPa 0,0 mm 0,4 km/h (0 Bft) SO 225 0 min 0 W/m 8,6 C 9,5 C 3,2 km/h (1 Bft)
22/05/2012 08:40 9,7 C 94 % 1012,4 hPa 0,0 mm 1,8 km/h (1 Bft) O 270 0 min 0 W/m 8,8 C 9,7 C 1,8 km/h (1 Bft)
22/05/2012 08:50 9,9 C 94 % 1012,5 hPa 0,0 mm 3,6 km/h (1 Bft) O 270 0 min 0 W/m 9,0 C 9,9 C 7,9 km/h (2 Bft)
22/05/2012 09:00 10,3 C 94 % 1012,4 hPa 0,0 mm 4,3 km/h (1 Bft) O-NO 292 0 min 0 W/m 9,4 C 10,3 C 7,6 km/h (2 Bft)
22/05/2012 09:10 10,4 C 94 % 1012,4 hPa 0,0 mm 9,0 km/h (2 Bft) O-NO 292 0 min 0 W/m 9,5 C 10,4 C 9,7 km/h (2 Bft)
22/05/2012 09:20 10,6 C 93 % 1012,5 hPa 0,0 mm 6,5 km/h (2 Bft) O-NO 292 0 min 0 W/m 9,5 C 10,6 C 10,8 km/h (2 Bft)
22/05/2012 09:30 10,7 C 93 % 1012,6 hPa 0,0 mm 6,1 km/h (2 Bft) O-SO 247 0 min 0 W/m 9,6 C 10,7 C 6,1 km/h (2 Bft)
22/05/2012 09:40 10,8 C 92 % 1012,9 hPa 0,0 mm 4,7 km/h (1 Bft) O-SO 247 0 min 0 W/m 9,6 C 10,8 C 4,7 km/h (1 Bft)
22/05/2012 09:50 10,9 C 92 % 1013,2 hPa 0,0 mm 1,4 km/h (1 Bft) O-SO 247 0 min 0 W/m 9,7 C 10,9 C 4,0 km/h (1 Bft)
22/05/2012 10:00 11,0 C 91 % 1013,2 hPa 0,0 mm 5,4 km/h (2 Bft) S 180 0 min 0 W/m 9,6 C 11,0 C 11,5 km/h (2 Bft)
22/05/2012 10:10 11,2 C 90 % 1013,2 hPa 0,0 mm 5,4 km/h (2 Bft) O-SO 247 0 min 0 W/m 9,6 C 11,2 C 16,6 km/h (3 Bft)
22/05/2012 10:20 11,4 C 91 % 1013,4 hPa 0,0 mm 7,6 km/h (2 Bft) NO 315 0 min 0 W/m 10,0 C 11,4 C 12,2 km/h (2 Bft)
22/05/2012 10:30 11,7 C 90 % 1013,6 hPa 0,0 mm 1,1 km/h (1 Bft) O-SO 247 0 min 0 W/m 10,1 C 11,7 C 5,8 km/h (2 Bft)
22/05/2012 10:40 11,9 C 90 % 1013,6 hPa 0,0 mm 4,3 km/h (1 Bft) O 270 0 min 0 W/m 10,3 C 11,9 C 9,7 km/h (2 Bft)
22/05/2012 10:50 12,2 C 89 % 1013,7 hPa 0,0 mm 0,0 km/h (0 Bft) O 270 0 min 0 W/m 10,4 C 12,2 C 0,0 km/h (0 Bft)
22/05/2012 11:00 12,6 C 88 % 1013,6 hPa 0,0 mm 6,5 km/h (2 Bft) O-SO 247 0 min 0 W/m 10,7 C 12,6 C 22,7 km/h (4 Bft)
22/05/2012 11:10 13,1 C 86 % 1013,6 hPa 0,0 mm 6,8 km/h (2 Bft) O-SO 247 0 min 0 W/m 10,8 C 13,1 C 21,2 km/h (4 Bft)
22/05/2012 11:20 13,4 C 85 % 1013,9 hPa 0,0 mm 2,5 km/h (1 Bft) O 270 0 min 0 W/m 10,9 C 13,4 C 5,8 km/h (2 Bft)
22/05/2012 11:30 13,8 C 85 % 1014,0 hPa 0,0 mm 9,0 km/h (2 Bft) SO 225 0 min 0 W/m 11,3 C 13,8 C 11,5 km/h (2 Bft)
22/05/2012 11:40 14,3 C 85 % 1014,3 hPa 0,0 mm 2,5 km/h (1 Bft) O 270 0 min 0 W/m 11,8 C 14,3 C 6,8 km/h (2 Bft)
22/05/2012 11:50 14,6 C 84 % 1014,4 hPa 0,0 mm 4,7 km/h (1 Bft) O 270 0 min 0 W/m 11,9 C 14,6 C 10,1 km/h (2 Bft)
22/05/2012 12:00 14,8 C 82 % 1014,4 hPa 0,0 mm 9,7 km/h (2 Bft) SO 225 0 min 0 W/m 11,8 C 14,8 C 17,6 km/h (3 Bft)
22/05/2012 12:10 14,8 C 82 % 1014,5 hPa 0,0 mm 6,8 km/h (2 Bft) O-NO 292 0 min 0 W/m 11,8 C 14,8 C 6,8 km/h (2 Bft)
22/05/2012 12:20 14,8 C 82 % 1014,6 hPa 0,0 mm 2,9 km/h (1 Bft) N-NO 337 0 min 0 W/m 11,8 C 14,8 C 2,9 km/h (1 Bft)
22/05/2012 12:30 15,3 C 84 % 1014,8 hPa 0,0 mm 8,3 km/h (2 Bft) O-SO 247 0 min 0 W/m 12,6 C 15,3 C 10,8 km/h (2 Bft)
22/05/2012 12:40 16,1 C 82 % 1014,8 hPa 0,0 mm 8,6 km/h (2 Bft) S 180 0 min 0 W/m 13,0 C 16,1 C 11,5 km/h (2 Bft)
22/05/2012 12:50 16,6 C 80 % 1014,7 hPa 0,0 mm 4,0 km/h (1 Bft) NO 315 0 min 0 W/m 13,1 C 16,6 C 7,6 km/h (2 Bft)
22/05/2012 13:00 17,1 C 78 % 1014,6 hPa 0,0 mm 2,9 km/h (1 Bft) SO 225 0 min 0 W/m 13,2 C 17,1 C 7,6 km/h (2 Bft)
22/05/2012 13:10 17,3 C 77 % 1014,7 hPa 0,0 mm 1,4 km/h (1 Bft) N-NO 337 0 min 0 W/m 13,2 C 17,3 C 4,3 km/h (1 Bft)
22/05/2012 13:20 17,2 C 74 % 1014,7 hPa 0,0 mm 6,8 km/h (2 Bft) S-SE 157 0 min 0 W/m 12,5 C 17,2 C 11,5 km/h (2 Bft)
22/05/2012 13:30 17,1 C 74 % 1014,7 hPa 0,0 mm 9,7 km/h (2 Bft) SO 225 0 min 0 W/m 12,4 C 17,1 C 10,1 km/h (2 Bft)
22/05/2012 13:40 17,2 C 76 % 1014,8 hPa 0,0 mm 2,9 km/h (1 Bft) SO 225 0 min 0 W/m 12,9 C 17,2 C 3,6 km/h (1 Bft)
22/05/2012 13:50 17,5 C 77 % 1015,0 hPa 0,0 mm 4,0 km/h (1 Bft) NO 315 0 min 0 W/m 13,4 C 17,5 C 4,3 km/h (1 Bft)
22/05/2012 14:00 17,7 C 75 % 1014,9 hPa 0,0 mm 7,2 km/h (2 Bft) O 270 0 min 0 W/m 13,2 C 17,7 C 11,9 km/h (2 Bft)
22/05/2012 14:10 17,8 C 74 % 1015,0 hPa 0,0 mm 10,8 km/h (2 Bft) O-SO 247 0 min 0 W/m 13,1 C 17,8 C 19,8 km/h (3 Bft)
22/05/2012 14:20 17,9 C 73 % 1015,0 hPa 0,0 mm 6,1 km/h (2 Bft) O-SO 247 0 min 0 W/m 13,0 C 17,9 C 6,1 km/h (2 Bft)
22/05/2012 14:30 17,6 C 74 % 1014,9 hPa 0,0 mm 6,1 km/h (2 Bft) SO 225 0 min 0 W/m 12,9 C 17,6 C 8,3 km/h (2 Bft)
22/05/2012 14:40 17,7 C 75 % 1014,8 hPa 0,0 mm 7,6 km/h (2 Bft) O-NO 292 0 min 0 W/m 13,2 C 17,7 C 14,8 km/h (3 Bft)
22/05/2012 14:50 17,8 C 73 % 1014,9 hPa 0,0 mm 4,7 km/h (1 Bft) O-NO 292 0 min 0 W/m 12,9 C 17,8 C 8,3 km/h (2 Bft)
22/05/2012 15:00 17,8 C 73 % 1015,3 hPa 0,0 mm 4,7 km/h (1 Bft) O 270 0 min 0 W/m 12,9 C 17,8 C 8,3 km/h (2 Bft)
22/05/2012 15:10 17,6 C 73 % 1015,3 hPa 0,0 mm 8,3 km/h (2 Bft) O 270 0 min 0 W/m 12,7 C 17,6 C 11,5 km/h (2 Bft)
22/05/2012 15:20 17,5 C 74 % 1015,5 hPa 0,0 mm 4,3 km/h (1 Bft) O-SO 247 0 min 0 W/m 12,8 C 17,5 C 4,3 km/h (1 Bft)
22/05/2012 15:30 17,4 C 74 % 1015,5 hPa 0,0 mm 2,2 km/h (1 Bft) O-SO 247 0 min 0 W/m 12,7 C 17,4 C 2,9 km/h (1 Bft)
22/05/2012 15:40 17,6 C 73 % 1015,5 hPa 0,0 mm 6,8 km/h (2 Bft) O-NO 292 0 min 0 W/m 12,7 C 17,6 C 13,0 km/h (3 Bft)
22/05/2012 15:50 17,7 C 74 % 1015,6 hPa 0,0 mm 3,2 km/h (1 Bft) E-NE 67 0 min 0 W/m 13,0 C 17,7 C 10,4 km/h (2 Bft)
22/05/2012 16:00 17,8 C 74 % 1015,7 hPa 0,0 mm 4,7 km/h (1 Bft) NO 315 0 min 0 W/m 13,1 C 17,8 C 9,0 km/h (2 Bft)
22/05/2012 16:10 18,1 C 71 % 1015,9 hPa 0,0 mm 5,0 km/h (1 Bft) O-NO 292 0 min 0 W/m 12,8 C 18,1 C 11,5 km/h (2 Bft)
22/05/2012 16:20 18,3 C 73 % 1015,9 hPa 0,0 mm 2,5 km/h (1 Bft) S 180 0 min 0 W/m 13,4 C 18,3 C 7,2 km/h (2 Bft)
22/05/2012 16:30 18,5 C 72 % 1016,0 hPa 0,0 mm 9,0 km/h (2 Bft) N-NO 337 0 min 0 W/m 13,4 C 18,5 C 9,7 km/h (2 Bft)
22/05/2012 16:40 18,6 C 71 % 1016,2 hPa 0,0 mm 6,5 km/h (2 Bft) SO 225 0 min 0 W/m 13,2 C 18,6 C 15,1 km/h (3 Bft)
22/05/2012 16:50 18,6 C 71 % 1016,2 hPa 0,0 mm 0,7 km/h (0 Bft) O-NO 292 0 min 0 W/m 13,2 C 18,6 C 4,3 km/h (1 Bft)
22/05/2012 17:00 18,6 C 72 % 1016,2 hPa 0,0 mm 4,0 km/h (1 Bft) O-NO 292 0 min 0 W/m 13,4 C 18,6 C 4,0 km/h (1 Bft)
22/05/2012 17:10 18,8 C 71 % 1016,2 hPa 0,0 mm 0,4 km/h (0 Bft) N-NE 22 0 min 0 W/m 13,4 C 18,8 C 0,4 km/h (0 Bft)
22/05/2012 17:20 19,2 C 70 % 1016,1 hPa 0,0 mm 4,3 km/h (1 Bft) O 270 0 min 0 W/m 13,6 C 19,2 C 8,3 km/h (2 Bft)
22/05/2012 17:30 19,4 C 70 % 1016,1 hPa 0,0 mm 6,5 km/h (2 Bft) N-NE 22 0 min 0 W/m 13,8 C 19,4 C 6,5 km/h (2 Bft)
22/05/2012 17:40 19,6 C 69 % 1016,3 hPa 0,0 mm 8,6 km/h (2 Bft) O-NO 292 0 min 0 W/m 13,8 C 19,6 C 8,6 km/h (2 Bft)
22/05/2012 17:50 19,8 C 69 % 1016,2 hPa 0,0 mm 4,3 km/h (1 Bft) O 270 0 min 0 W/m 13,9 C 19,8 C 4,3 km/h (1 Bft)
22/05/2012 18:00 19,8 C 69 % 1016,2 hPa 0,0 mm 2,5 km/h (1 Bft) O 270 0 min 0 W/m 13,9 C 19,8 C 6,5 km/h (2 Bft)
22/05/2012 18:10 20,0 C 70 % 1016,2 hPa 0,0 mm 8,3 km/h (2 Bft) O-NO 292 0 min 0 W/m 14,4 C 20,0 C 8,3 km/h (2 Bft)
22/05/2012 18:20 20,1 C 69 % 1016,5 hPa 0,0 mm 3,2 km/h (1 Bft) N-NO 337 0 min 0 W/m 14,2 C 20,1 C 8,6 km/h (2 Bft)
22/05/2012 18:30 19,9 C 69 % 1016,5 hPa 0,0 mm 6,5 km/h (2 Bft) N-NO 337 0 min 0 W/m 14,0 C 19,9 C 11,9 km/h (2 Bft)
22/05/2012 18:40 19,8 C 70 % 1016,6 hPa 0,0 mm 5,4 km/h (2 Bft) NO 315 0 min 0 W/m 14,2 C 19,8 C 15,8 km/h (3 Bft)
22/05/2012 18:50 19,8 C 70 % 1016,6 hPa 0,0 mm 1,1 km/h (1 Bft) NO 315 0 min 0 W/m 14,2 C 19,8 C 3,2 km/h (1 Bft)
22/05/2012 19:00 19,6 C 69 % 1016,6 hPa 0,0 mm 1,1 km/h (1 Bft) NO 315 0 min 0 W/m 13,8 C 19,6 C 3,6 km/h (1 Bft)
22/05/2012 19:10 19,3 C 68 % 1016,6 hPa 0,0 mm 3,2 km/h (1 Bft) O-NO 292 0 min 0 W/m 13,2 C 19,3 C 12,2 km/h (2 Bft)
22/05/2012 19:20 19,1 C 70 % 1016,7 hPa 0,0 mm 4,7 km/h (1 Bft) N-NO 337 0 min 0 W/m 13,5 C 19,1 C 12,2 km/h (2 Bft)
22/05/2012 19:30 19,0 C 70 % 1016,8 hPa 0,0 mm 4,3 km/h (1 Bft) N-NO 337 0 min 0 W/m 13,4 C 19,0 C 4,3 km/h (1 Bft)
22/05/2012 19:40 18,9 C 70 % 1017,1 hPa 0,0 mm 5,4 km/h (2 Bft) N-NO 337 0 min 0 W/m 13,3 C 18,9 C 9,0 km/h (2 Bft)
22/05/2012 19:50 18,8 C 70 % 1017,1 hPa 0,0 mm 2,5 km/h (1 Bft) NO 315 0 min 0 W/m 13,2 C 18,8 C 6,5 km/h (2 Bft)
22/05/2012 20:00 18,6 C 71 % 1017,1 hPa 0,0 mm 0,4 km/h (0 Bft) O 270 0 min 0 W/m 13,2 C 18,6 C 0,4 km/h (0 Bft)
22/05/2012 20:10 18,5 C 72 % 1017,1 hPa 0,0 mm 0,7 km/h (0 Bft) N 360 0 min 0 W/m 13,4 C 18,5 C 4,3 km/h (1 Bft)
22/05/2012 20:20 18,3 C 73 % 1017,2 hPa 0,0 mm 0,0 km/h (0 Bft) N-NO 337 0 min 0 W/m 13,4 C 18,3 C 2,9 km/h (1 Bft)
22/05/2012 20:30 18,2 C 73 % 1017,2 hPa 0,0 mm 7,2 km/h (2 Bft) O-NO 292 0 min 0 W/m 13,3 C 18,2 C 7,2 km/h (2 Bft)
22/05/2012 20:40 18,0 C 73 % 1017,3 hPa 0,0 mm 0,0 km/h (0 Bft) O-SO 247 0 min 0 W/m 13,1 C 18,0 C 0,0 km/h (0 Bft)
22/05/2012 20:50 17,8 C 73 % 1017,4 hPa 0,0 mm 2,5 km/h (1 Bft) O-SO 247 0 min 0 W/m 12,9 C 17,8 C 5,8 km/h (2 Bft)
22/05/2012 21:00 17,6 C 74 % 1017,6 hPa 0,0 mm 4,0 km/h (1 Bft) NO 315 0 min 0 W/m 12,9 C 17,6 C 6,5 km/h (2 Bft)
22/05/2012 21:10 17,4 C 74 % 1017,6 hPa 0,0 mm 2,2 km/h (1 Bft) O 270 0 min 0 W/m 12,7 C 17,4 C 2,9 km/h (1 Bft)
22/05/2012 21:20 17,3 C 74 % 1017,8 hPa 0,0 mm 2,9 km/h (1 Bft) NO 315 0 min 0 W/m 12,6 C 17,3 C 4,0 km/h (1 Bft)
22/05/2012 21:30 17,2 C 74 % 1017,9 hPa 0,0 mm 0,0 km/h (0 Bft) O 270 0 min 0 W/m 12,5 C 17,2 C 2,9 km/h (1 Bft)
22/05/2012 21:40 17,1 C 75 % 1017,9 hPa 0,0 mm 2,2 km/h (1 Bft) O 270 0 min 0 W/m 12,6 C 17,1 C 4,7 km/h (1 Bft)
22/05/2012 21:50 16,9 C 75 % 1018,0 hPa 0,0 mm 2,2 km/h (1 Bft) N 360 0 min 0 W/m 12,4 C 16,9 C 2,2 km/h (1 Bft)
22/05/2012 22:00 16,8 C 75 % 1018,1 hPa 0,0 mm 0,7 km/h (0 Bft) O 270 0 min 0 W/m 12,3 C 16,8 C 0,7 km/h (0 Bft)
22/05/2012 22:10 16,8 C 76 % 1018,2 hPa 0,0 mm 3,6 km/h (1 Bft) O-NO 292 0 min 0 W/m 12,5 C 16,8 C 3,6 km/h (1 Bft)
22/05/2012 22:20 16,6 C 77 % 1018,3 hPa 0,0 mm 3,2 km/h (1 Bft) O 270 0 min 0 W/m 12,5 C 16,6 C 3,6 km/h (1 Bft)
22/05/2012 22:30 16,6 C 77 % 1018,5 hPa 0,0 mm 1,1 km/h (1 Bft) O-SO 247 0 min 0 W/m 12,5 C 16,6 C 4,3 km/h (1 Bft)
22/05/2012 22:40 16,5 C 77 % 1018,6 hPa 0,0 mm 3,2 km/h (1 Bft) NO 315 0 min 0 W/m 12,5 C 16,5 C 9,7 km/h (2 Bft)
22/05/2012 22:50 16,4 C 77 % 1018,6 hPa 0,0 mm 2,2 km/h (1 Bft) NO 315 0 min 0 W/m 12,4 C 16,4 C 4,3 km/h (1 Bft)
22/05/2012 23:00 16,3 C 78 % 1018,8 hPa 0,0 mm 1,4 km/h (1 Bft) NO 315 0 min 0 W/m 12,5 C 16,3 C 6,1 km/h (2 Bft)
22/05/2012 23:10 16,3 C 78 % 1019,0 hPa 0,0 mm 0,7 km/h (0 Bft) N-NO 337 0 min 0 W/m 12,5 C 16,3 C 3,6 km/h (1 Bft)
_ Min-Heure 07:20 19:10 00:00 - 21:30 - - - - 07:20 03:50 20:40
Minimum _ 9,4 C 68 % 1009,2 hPa - 0,0 km/h (0 Bft) - - - - 8,5 C 8,9 C 0,0 km/h (0 Bft)
_ Max-Heure 18:20 09:10 23:10 03:20 14:10 - - 23:10 23:10 18:10 18:20 11:00
Maximum _ 20,1 C 94 % 1019,0 hPa 0,1 mm 10,8 km/h
O-SO (2 Bft)
- - 0 min 0 W/m 14,4 C 20,1 C 22,7 km/h
O-SO (4 Bft)
Moyenne _ 14,0 C 84 % 1013,9 hPa #1,1 mm 4,2 km/h (1 Bft) O - #0 min. 0 W/m 11,1 C 14,0 C 7,6 km/h (2 Bft)
Saint Bonnet de Bellac- Haute Vienne - France